Time,TemperatureF,DewpointF,PressureIn,WindDirection,WindDirectionDegrees,WindSpeedMPH,WindSpeedGustMPH,Humidity,HourlyPrecipIn,Conditions,Clouds,dailyrainin,SolarRadiationWatts/m^2,SoftwareType,DateUTC
2013-04-22 00:01:00,27.5,23.9,31.10,North,360,13.0,18.0,86,0.00,,,0.00,0.00,VWS V14.00,2013-04-22 06:01:00,
2013-04-22 00:06:00,27.5,23.6,31.10,North,5,15.0,17.0,85,0.00,,,0.00,0.00,VWS V14.00,2013-04-22 06:06:00,
2013-04-22 00:11:00,27.5,23.6,31.11,North,355,15.0,18.0,85,0.00,,,0.00,0.00,VWS V14.00,2013-04-22 06:11:00,
2013-04-22 00:16:00,27.5,23.6,31.11,North,355,11.0,19.0,85,0.00,,,0.00,0.00,VWS V14.00,2013-04-22 06:16:00,
2013-04-22 00:21:00,27.4,23.2,31.12,North,360,15.0,15.0,84,0.00,,,0.00,0.00,VWS V14.00,2013-04-22 06:21:00,
2013-04-22 00:26:00,27.4,23.2,31.12,North,360,14.0,20.0,84,0.00,,,0.00,0.00,VWS V14.00,2013-04-22 06:26:00,
2013-04-22 00:31:00,27.3,22.8,31.12,North,355,12.0,20.0,83,0.00,,,0.00,0.00,VWS V14.00,2013-04-22 06:31:00,
2013-04-22 00:36:00,27.3,22.8,31.12,NNE,26,5.0,18.0,83,0.00,,,0.00,0.00,VWS V14.00,2013-04-22 06:36:00,
2013-04-22 00:41:00,27.2,22.7,31.12,North,351,3.0,18.0,83,0.00,,,0.00,0.00,VWS V14.00,2013-04-22 06:41:00,
2013-04-22 00:46:00,27.1,22.4,31.13,ENE,76,6.0,18.0,82,0.00,,,0.00,0.00,VWS V14.00,2013-04-22 06:46:00,
2013-04-22 00:51:00,27.1,22.4,31.13,North,10,4.0,13.0,82,0.00,,,0.00,0.00,VWS V14.00,2013-04-22 06:51:00,
2013-04-22 00:56:00,27.0,22.2,31.13,NNW,341,8.0,16.0,82,0.00,,,0.00,0.00,VWS V14.00,2013-04-22 06:56:00,
2013-04-22 01:01:00,27.0,22.2,31.14,NNW,348,10.0,16.0,82,0.00,,,0.00,0.00,VWS V14.00,2013-04-22 07:01:00,
2013-04-22 01:06:00,26.9,22.1,31.12,North,5,3.0,12.0,82,0.00,,,0.00,0.00,VWS V14.00,2013-04-22 07:06:00,
2013-04-22 01:11:00,26.9,21.9,31.13,NNW,343,4.0,14.0,81,0.00,,,0.00,0.00,VWS V14.00,2013-04-22 07:11:00,
2013-04-22 01:16:00,26.8,21.8,31.13,North,10,6.0,14.0,81,0.00,,,0.00,0.00,VWS V14.00,2013-04-22 07:16:00,
2013-04-22 01:21:00,26.7,21.7,31.13,North,355,10.0,15.0,81,0.00,,,0.00,0.00,VWS V14.00,2013-04-22 07:21:00,
2013-04-22 01:26:00,26.7,21.4,31.14,North,360,7.0,19.0,80,0.00,,,0.00,0.00,VWS V14.00,2013-04-22 07:26:00,
2013-04-22 01:31:00,26.7,21.4,31.14,North,350,15.0,19.0,80,0.00,,,0.00,0.00,VWS V14.00,2013-04-22 07:31:00,
2013-04-22 01:36:00,26.6,21.0,31.14,NE,38,6.0,17.0,79,0.00,,,0.00,0.00,VWS V14.00,2013-04-22 07:36:00,
2013-04-22 01:41:00,26.6,21.0,31.14,North,355,12.0,18.0,79,0.00,,,0.00,0.00,VWS V14.00,2013-04-22 07:41:00,
2013-04-22 01:46:00,26.5,20.9,31.14,NNE,25,3.0,18.0,79,0.00,,,0.00,0.00,VWS V14.00,2013-04-22 07:46:00,
2013-04-22 01:51:00,26.5,20.9,31.14,NNW,346,3.0,6.0,79,0.00,,,0.00,0.00,VWS V14.00,2013-04-22 07:51:00,
2013-04-22 01:56:00,26.5,20.6,31.14,North,355,11.0,15.0,78,0.00,,,0.00,0.00,VWS V14.00,2013-04-22 07:56:00,
2013-04-22 02:01:00,26.5,20.6,31.14,North,355,16.0,20.0,78,0.00,,,0.00,0.00,VWS V14.00,2013-04-22 08:01:00,
2013-04-22 02:07:00,26.5,20.3,31.17,North,351,11.0,18.0,77,0.00,,,0.00,0.00,VWS V14.00,2013-04-22 08:07:00,
2013-04-22 02:12:00,26.5,20.6,31.17,North,360,13.0,19.0,78,0.00,,,0.00,0.00,VWS V14.00,2013-04-22 08:12:00,
2013-04-22 02:17:00,26.5,20.6,31.17,North,355,14.0,19.0,78,0.00,,,0.00,0.00,VWS V14.00,2013-04-22 08:17:00,
2013-04-22 02:22:00,26.5,20.6,31.17,North,350,9.0,21.0,78,0.00,,,0.00,0.00,VWS V14.00,2013-04-22 08:22:00,
2013-04-22 02:27:00,26.5,20.6,31.17,North,5,17.0,21.0,78,0.00,,,0.00,0.00,VWS V14.00,2013-04-22 08:27:00,
2013-04-22 02:32:00,26.5,20.3,31.17,North,360,14.0,21.0,77,0.00,,,0.00,0.00,VWS V14.00,2013-04-22 08:32:00,
2013-04-22 02:37:00,26.5,20.0,31.17,North,355,17.0,21.0,76,0.00,,,0.00,0.00,VWS V14.00,2013-04-22 08:37:00,
2013-04-22 02:42:00,26.5,20.0,31.17,North,9,5.0,21.0,76,0.00,,,0.00,0.00,VWS V14.00,2013-04-22 08:42:00,
2013-04-22 02:47:00,26.5,20.0,31.18,NNW,348,12.0,21.0,76,0.00,,,0.00,0.00,VWS V14.00,2013-04-22 08:47:00,
2013-04-22 02:52:00,26.5,19.7,31.18,North,360,14.0,21.0,75,0.00,,,0.00,0.00,VWS V14.00,2013-04-22 08:52:00,
2013-04-22 02:57:00,26.5,20.0,31.19,North,10,18.0,21.0,76,0.00,,,0.00,0.00,VWS V14.00,2013-04-22 08:57:00,
2013-04-22 03:02:00,26.3,19.8,31.19,North,9,18.0,21.0,76,0.00,,,0.00,0.00,VWS V14.00,2013-04-22 09:02:00,
2013-04-22 03:07:00,26.3,19.8,31.18,North,349,9.0,18.0,76,0.00,,,0.00,0.00,VWS V14.00,2013-04-22 09:07:00,
2013-04-22 03:12:00,26.3,19.8,31.18,North,355,15.0,18.0,76,0.00,,,0.00,0.00,VWS V14.00,2013-04-22 09:12:00,
2013-04-22 03:17:00,26.2,19.7,31.19,North,355,15.0,20.0,76,0.00,,,0.00,0.00,VWS V14.00,2013-04-22 09:17:00,
2013-04-22 03:22:00,26.2,19.4,31.19,North,355,15.0,17.0,75,0.00,,,0.00,0.00,VWS V14.00,2013-04-22 09:22:00,
2013-04-22 03:27:00,26.2,19.4,31.19,North,355,16.0,18.0,75,0.00,,,0.00,0.00,VWS V14.00,2013-04-22 09:27:00,
2013-04-22 03:32:00,26.2,19.4,31.19,North,355,13.0,18.0,75,0.00,,,0.00,0.00,VWS V14.00,2013-04-22 09:32:00,
2013-04-22 03:37:00,26.2,19.4,31.19,North,351,15.0,18.0,75,0.00,,,0.00,0.00,VWS V14.00,2013-04-22 09:37:00,
2013-04-22 03:42:00,26.2,19.1,31.19,North,355,12.0,19.0,74,0.00,,,0.00,0.00,VWS V14.00,2013-04-22 09:42:00,
2013-04-22 03:47:00,26.2,19.1,31.19,North,355,16.0,19.0,74,0.00,,,0.00,0.00,VWS V14.00,2013-04-22 09:47:00,
2013-04-22 03:52:00,26.2,19.1,31.19,North,350,11.0,17.0,74,0.00,,,0.00,0.00,VWS V14.00,2013-04-22 09:52:00,
2013-04-22 03:57:00,26.1,19.0,31.19,North,360,11.0,17.0,74,0.00,,,0.00,0.00,VWS V14.00,2013-04-22 09:57:00,
2013-04-22 04:02:00,26.1,18.6,31.19,North,355,13.0,19.0,73,0.00,,,0.00,0.00,VWS V14.00,2013-04-22 10:02:00,
2013-04-22 04:07:00,26.2,18.7,31.19,North,5,15.0,17.0,73,0.00,,,0.00,0.00,VWS V14.00,2013-04-22 10:07:00,
2013-04-22 04:12:00,26.2,18.1,31.19,North,360,15.0,20.0,71,0.00,,,0.00,0.00,VWS V14.00,2013-04-22 10:12:00,
2013-04-22 04:17:00,26.2,18.1,31.20,North,5,12.0,20.0,71,0.00,,,0.00,0.00,VWS V14.00,2013-04-22 10:17:00,
2013-04-22 04:22:00,26.2,18.4,31.20,North,360,15.0,16.0,72,0.00,,,0.00,0.00,VWS V14.00,2013-04-22 10:22:00,
2013-04-22 04:27:00,26.3,18.2,31.20,North,349,15.0,18.0,71,0.00,,,0.00,0.00,VWS V14.00,2013-04-22 10:27:00,
2013-04-22 04:32:00,26.3,17.9,31.20,North,5,17.0,21.0,70,0.00,,,0.00,0.00,VWS V14.00,2013-04-22 10:32:00,
2013-04-22 04:37:00,26.3,18.2,31.20,North,355,13.0,18.0,71,0.00,,,0.00,0.00,VWS V14.00,2013-04-22 10:37:00,
2013-04-22 04:42:00,26.2,18.1,31.20,North,355,15.0,19.0,71,0.00,,,0.00,0.00,VWS V14.00,2013-04-22 10:42:00,
2013-04-22 04:47:00,26.2,18.1,31.21,North,355,11.0,19.0,71,0.00,,,0.00,0.00,VWS V14.00,2013-04-22 10:47:00,
2013-04-22 04:52:00,26.2,18.1,31.21,North,360,16.0,16.0,71,0.00,,,0.00,0.00,VWS V14.00,2013-04-22 10:52:00,
2013-04-22 04:57:00,26.1,18.0,31.21,North,351,11.0,16.0,71,0.00,,,0.00,0.00,VWS V14.00,2013-04-22 10:57:00,
2013-04-22 05:02:00,26.0,17.9,31.22,North,355,11.0,16.0,71,0.00,,,0.00,0.00,VWS V14.00,2013-04-22 11:02:00,
2013-04-22 05:07:00,25.8,17.7,31.28,NNE,13,5.0,15.0,71,0.00,,,0.00,0.00,VWS V14.00,2013-04-22 11:07:00,
2013-04-22 05:12:00,25.5,17.4,31.28,North,5,7.0,15.0,71,0.00,,,0.00,0.00,VWS V14.00,2013-04-22 11:12:00,
2013-04-22 05:17:00,25.3,16.9,31.28,NNE,15,6.0,15.0,70,0.00,,,0.00,0.00,VWS V14.00,2013-04-22 11:17:00,
2013-04-22 05:22:00,25.0,16.9,31.28,North,355,11.0,11.0,71,0.00,,,0.00,0.00,VWS V14.00,2013-04-22 11:22:00,
2013-04-22 05:27:00,24.7,16.6,31.29,North,360,6.0,11.0,71,0.00,,,0.00,0.00,VWS V14.00,2013-04-22 11:27:00,
2013-04-22 05:32:00,24.3,16.3,31.30,North,360,5.0,13.0,71,0.00,,,0.00,0.00,VWS V14.00,2013-04-22 11:32:00,
2013-04-22 05:37:00,24.0,16.0,31.31,North,360,7.0,10.0,71,0.00,,,0.00,0.00,VWS V14.00,2013-04-22 11:37:00,
2013-04-22 05:42:00,23.8,15.8,31.31,North,360,4.0,12.0,71,0.00,,,0.00,0.00,VWS V14.00,2013-04-22 11:42:00,
2013-04-22 05:47:00,23.5,15.5,31.31,North,355,5.0,12.0,71,0.00,,,0.00,0.00,VWS V14.00,2013-04-22 11:47:00,
2013-04-22 05:52:00,23.1,15.1,31.31,North,355,0.0,6.0,71,0.00,,,0.00,0.00,VWS V14.00,2013-04-22 11:52:00,
2013-04-22 05:57:00,22.8,14.8,31.31,North,355,1.0,7.0,71,0.00,,,0.00,0.00,VWS V14.00,2013-04-22 11:57:00,
2013-04-22 06:02:00,22.7,14.7,31.32,NNE,14,2.0,7.0,71,0.00,,,0.00,0.00,VWS V14.00,2013-04-22 12:02:00,
2013-04-22 06:07:00,22.7,14.7,31.36,North,10,0.0,5.0,71,0.00,,,0.00,0.00,VWS V14.00,2013-04-22 12:07:00,
2013-04-22 06:12:00,22.7,14.7,31.36,North,355,2.0,6.0,71,0.00,,,0.00,0.00,VWS V14.00,2013-04-22 12:12:00,
2013-04-22 06:17:00,22.8,14.8,31.36,NNE,21,2.0,6.0,71,0.00,,,0.00,0.00,VWS V14.00,2013-04-22 12:17:00,
2013-04-22 06:22:00,22.8,14.8,31.37,NNE,12,1.0,5.0,71,0.00,,,0.00,0.00,VWS V14.00,2013-04-22 12:22:00,
2013-04-22 06:27:00,22.7,14.7,31.37,North,10,2.0,6.0,71,0.00,,,0.00,0.00,VWS V14.00,2013-04-22 12:27:00,
2013-04-22 06:32:00,22.8,14.8,31.37,NNE,13,4.0,6.0,71,0.00,,,0.00,0.00,VWS V14.00,2013-04-22 12:32:00,
2013-04-22 06:37:00,22.8,15.1,31.38,NNE,14,1.0,4.0,72,0.00,,,0.00,0.00,VWS V14.00,2013-04-22 12:37:00,
2013-04-22 06:42:00,22.9,15.2,31.38,NNE,30,1.0,9.0,72,0.00,,,0.00,5.00,VWS V14.00,2013-04-22 12:42:00,
2013-04-22 06:47:00,23.1,15.4,31.38,NNE,30,4.0,9.0,72,0.00,,,0.00,7.00,VWS V14.00,2013-04-22 12:47:00,
2013-04-22 06:52:00,23.2,15.5,31.38,North,355,2.0,7.0,72,0.00,,,0.00,11.00,VWS V14.00,2013-04-22 12:52:00,
2013-04-22 06:57:00,23.4,15.4,31.39,North,360,4.0,10.0,71,0.00,,,0.00,16.00,VWS V14.00,2013-04-22 12:57:00,
2013-04-22 07:02:00,23.6,15.6,31.38,NE,42,3.0,11.0,71,0.00,,,0.00,19.00,VWS V14.00,2013-04-22 13:02:00,
2013-04-22 07:07:00,23.7,15.7,31.39,NE,45,4.0,6.0,71,0.00,,,0.00,25.00,VWS V14.00,2013-04-22 13:07:00,
2013-04-22 07:12:00,23.9,15.9,31.39,NE,36,5.0,10.0,71,0.00,,,0.00,28.00,VWS V14.00,2013-04-22 13:12:00,
2013-04-22 07:17:00,24.0,16.0,31.39,North,350,5.0,10.0,71,0.00,,,0.00,35.00,VWS V14.00,2013-04-22 13:17:00,
2013-04-22 07:22:00,24.2,15.8,31.40,North,9,4.0,10.0,70,0.00,,,0.00,42.00,VWS V14.00,2013-04-22 13:22:00,
2013-04-22 07:27:00,24.3,15.9,31.40,North,360,5.0,10.0,70,0.00,,,0.00,51.00,VWS V14.00,2013-04-22 13:27:00,
2013-04-22 07:32:00,24.5,15.8,31.40,NNE,21,1.0,10.0,69,0.00,,,0.00,58.00,VWS V14.00,2013-04-22 13:32:00,
2013-04-22 07:37:00,24.5,16.1,31.41,NE,34,2.0,10.0,70,0.00,,,0.00,63.00,VWS V14.00,2013-04-22 13:37:00,
2013-04-22 07:42:00,24.6,16.5,31.41,North,360,3.0,13.0,71,0.00,,,0.00,70.00,VWS V14.00,2013-04-22 13:42:00,
2013-04-22 07:47:00,24.7,16.3,31.41,North,360,1.0,13.0,70,0.00,,,0.00,79.00,VWS V14.00,2013-04-22 13:47:00,
2013-04-22 07:52:00,24.9,16.5,31.41,North,355,12.0,15.0,70,0.00,,,0.00,90.00,VWS V14.00,2013-04-22 13:52:00,
2013-04-22 07:57:00,25.1,17.0,31.41,North,360,5.0,15.0,71,0.00,,,0.00,100.00,VWS V14.00,2013-04-22 13:57:00,
2013-04-22 08:02:00,25.3,16.9,31.42,North,5,10.0,15.0,70,0.00,,,0.00,113.00,VWS V14.00,2013-04-22 14:02:00,
2013-04-22 08:07:00,25.4,17.0,31.43,North,355,6.0,12.0,70,0.00,,,0.00,120.00,VWS V14.00,2013-04-22 14:07:00,
2013-04-22 08:12:00,25.5,17.1,31.42,North,360,5.0,12.0,70,0.00,,,0.00,135.00,VWS V14.00,2013-04-22 14:12:00,
2013-04-22 08:17:00,25.6,17.2,31.42,NNE,15,8.0,12.0,70,0.00,,,0.00,142.00,VWS V14.00,2013-04-22 14:17:00,
2013-04-22 08:22:00,25.8,17.0,31.42,North,360,4.0,7.0,69,0.00,,,0.00,156.00,VWS V14.00,2013-04-22 14:22:00,
2013-04-22 08:27:00,26.0,17.6,31.42,North,355,1.0,10.0,70,0.00,,,0.00,188.00,VWS V14.00,2013-04-22 14:27:00,
2013-04-22 08:32:00,26.2,17.4,31.43,NNW,347,3.0,10.0,69,0.00,,,0.00,179.00,VWS V14.00,2013-04-22 14:32:00,
2013-04-22 08:37:00,26.3,17.2,31.43,North,350,3.0,6.0,68,0.00,,,0.00,197.00,VWS V14.00,2013-04-22 14:37:00,
2013-04-22 08:42:00,26.5,17.4,31.43,North,355,6.0,8.0,68,0.00,,,0.00,197.00,VWS V14.00,2013-04-22 14:42:00,
2013-04-22 08:47:00,26.7,17.2,31.43,North,360,2.0,8.0,67,0.00,,,0.00,199.00,VWS V14.00,2013-04-22 14:47:00,
2013-04-22 08:52:00,26.9,17.4,31.44,NNE,14,4.0,10.0,67,0.00,,,0.00,214.00,VWS V14.00,2013-04-22 14:52:00,
2013-04-22 08:57:00,27.3,17.8,31.44,North,355,4.0,11.0,67,0.00,,,0.00,288.00,VWS V14.00,2013-04-22 14:57:00,
2013-04-22 09:03:00,27.6,17.4,31.43,North,360,2.0,11.0,65,0.00,,,0.00,174.00,VWS V14.00,2013-04-22 15:03:00,
2013-04-22 09:08:00,27.9,17.3,31.44,North,5,7.0,9.0,64,0.00,,,0.00,227.00,VWS V14.00,2013-04-22 15:08:00,
2013-04-22 09:13:00,28.0,17.4,31.44,NNE,19,4.0,9.0,64,0.00,,,0.00,158.00,VWS V14.00,2013-04-22 15:13:00,
2013-04-22 09:18:00,28.1,17.5,31.44,North,360,0.0,9.0,64,0.00,,,0.00,162.00,VWS V14.00,2013-04-22 15:18:00,
2013-04-22 09:23:00,28.2,16.9,31.44,NNW,348,10.0,12.0,62,0.00,,,0.00,213.00,VWS V14.00,2013-04-22 15:23:00,
2013-04-22 09:28:00,28.4,17.8,31.44,North,350,7.0,12.0,64,0.00,,,0.00,287.00,VWS V14.00,2013-04-22 15:28:00,
2013-04-22 09:33:00,28.5,16.8,31.43,North,5,2.0,15.0,61,0.00,,,0.00,397.00,VWS V14.00,2013-04-22 15:33:00,
2013-04-22 09:38:00,28.8,17.1,31.43,NNE,19,7.0,14.0,61,0.00,,,0.00,462.00,VWS V14.00,2013-04-22 15:38:00,
2013-04-22 09:43:00,29.0,17.6,31.43,NNE,24,10.0,14.0,62,0.00,,,0.00,519.00,VWS V14.00,2013-04-22 15:43:00,
2013-04-22 09:48:00,29.2,17.1,31.43,NNE,33,9.0,14.0,60,0.00,,,0.00,369.00,VWS V14.00,2013-04-22 15:48:00,
2013-04-22 09:53:00,29.3,17.1,31.43,North,355,9.0,11.0,60,0.00,,,0.00,302.00,VWS V14.00,2013-04-22 15:53:00,
2013-04-22 09:58:00,29.4,18.0,31.43,North,360,9.0,13.0,62,0.00,,,0.00,561.00,VWS V14.00,2013-04-22 15:58:00,
2013-04-22 10:03:00,29.7,17.9,31.43,North,355,6.0,13.0,61,0.00,,,0.00,575.00,VWS V14.00,2013-04-22 16:03:00,
2013-04-22 10:08:00,30.1,17.9,31.43,North,355,7.0,9.0,60,0.00,,,0.00,587.00,VWS V14.00,2013-04-22 16:08:00,
2013-04-22 10:13:00,30.5,17.9,31.44,North,355,11.0,11.0,59,0.00,,,0.00,599.00,VWS V14.00,2013-04-22 16:13:00,
2013-04-22 10:18:00,30.8,18.2,31.44,North,355,9.0,11.0,59,0.00,,,0.00,612.00,VWS V14.00,2013-04-22 16:18:00,
2013-04-22 10:23:00,31.3,17.9,31.44,North,355,4.0,6.0,57,0.00,,,0.00,622.00,VWS V14.00,2013-04-22 16:23:00,
2013-04-22 10:28:00,31.7,17.4,31.42,North,5,5.0,11.0,55,0.00,,,0.00,636.00,VWS V14.00,2013-04-22 16:28:00,
2013-04-22 10:33:00,32.0,18.1,31.43,North,9,4.0,11.0,56,0.00,,,0.00,647.00,VWS V14.00,2013-04-22 16:33:00,
2013-04-22 10:38:00,32.2,17.9,31.43,NNW,348,9.0,12.0,55,0.00,,,0.00,659.00,VWS V14.00,2013-04-22 16:38:00,
2013-04-22 10:43:00,32.3,18.8,31.43,North,355,7.0,13.0,57,0.00,,,0.00,671.00,VWS V14.00,2013-04-22 16:43:00,
2013-04-22 10:48:00,32.3,16.2,31.43,North,355,7.0,13.0,51,0.00,,,0.00,663.00,VWS V14.00,2013-04-22 16:48:00,
2013-04-22 10:53:00,32.6,18.7,31.43,NNE,28,3.0,7.0,56,0.00,,,0.00,689.00,VWS V14.00,2013-04-22 16:53:00,
2013-04-22 10:58:00,32.9,18.9,31.43,NNW,338,7.0,10.0,56,0.00,,,0.00,696.00,VWS V14.00,2013-04-22 16:58:00,
2013-04-22 11:03:00,33.0,18.2,31.43,NNW,331,6.0,10.0,54,0.00,,,0.00,703.00,VWS V14.00,2013-04-22 17:03:00,
2013-04-22 11:08:00,33.0,19.4,31.43,NNW,327,7.0,12.0,57,0.00,,,0.00,721.00,VWS V14.00,2013-04-22 17:08:00,
2013-04-22 11:13:00,33.0,19.4,31.43,NNW,337,6.0,12.0,57,0.00,,,0.00,733.00,VWS V14.00,2013-04-22 17:13:00,
2013-04-22 11:18:00,33.1,18.7,31.43,NNW,333,2.0,12.0,55,0.00,,,0.00,744.00,VWS V14.00,2013-04-22 17:18:00,
2013-04-22 11:23:00,33.2,19.2,31.43,NNW,341,5.0,10.0,56,0.00,,,0.00,754.00,VWS V14.00,2013-04-22 17:23:00,
2013-04-22 11:28:00,33.4,19.4,31.43,NE,42,3.0,10.0,56,0.00,,,0.00,761.00,VWS V14.00,2013-04-22 17:28:00,
2013-04-22 11:33:00,33.7,20.1,31.42,NNW,338,4.0,10.0,57,0.00,,,0.00,772.00,VWS V14.00,2013-04-22 17:33:00,
2013-04-22 11:38:00,33.9,19.0,31.42,NNW,346,3.0,12.0,54,0.00,,,0.00,779.00,VWS V14.00,2013-04-22 17:38:00,
2013-04-22 11:43:00,34.1,18.8,31.42,NNW,345,1.0,12.0,53,0.00,,,0.00,779.00,VWS V14.00,2013-04-22 17:43:00,
2013-04-22 11:48:00,34.4,19.0,31.42,NE,41,1.0,12.0,53,0.00,,,0.00,795.00,VWS V14.00,2013-04-22 17:48:00,
2013-04-22 11:53:00,34.9,21.6,31.42,NNE,17,1.0,4.0,58,0.00,,,0.00,800.00,VWS V14.00,2013-04-22 17:53:00,
2013-04-22 11:58:00,35.5,21.4,31.42,NNW,329,4.0,6.0,56,0.00,,,0.00,810.00,VWS V14.00,2013-04-22 17:58:00,
2013-04-22 12:03:00,35.6,21.0,31.41,North,355,6.0,11.0,55,0.00,,,0.00,840.00,VWS V14.00,2013-04-22 18:03:00,
2013-04-22 12:08:00,35.9,20.9,31.41,NNW,345,0.0,3.0,54,0.00,,,0.00,810.00,VWS V14.00,2013-04-22 18:08:00,
2013-04-22 12:13:00,36.6,20.6,31.40,NNW,331,4.0,5.0,52,0.00,,,0.00,824.00,VWS V14.00,2013-04-22 18:13:00,
2013-04-22 12:18:00,36.9,21.8,31.40,NNE,19,4.0,7.0,54,0.00,,,0.00,838.00,VWS V14.00,2013-04-22 18:18:00,
2013-04-22 12:23:00,37.2,22.1,31.40,North,355,5.0,7.0,54,0.00,,,0.00,847.00,VWS V14.00,2013-04-22 18:23:00,
2013-04-22 12:28:00,37.1,20.2,31.40,NNW,333,4.0,15.0,50,0.00,,,0.00,854.00,VWS V14.00,2013-04-22 18:28:00,
2013-04-22 12:33:00,37.2,21.7,31.40,North,355,9.0,15.0,53,0.00,,,0.00,884.00,VWS V14.00,2013-04-22 18:33:00,
2013-04-22 12:38:00,37.0,21.9,31.40,NW,319,3.0,9.0,54,0.00,,,0.00,895.00,VWS V14.00,2013-04-22 18:38:00,
2013-04-22 12:43:00,37.1,20.7,31.40,NNW,333,8.0,12.0,51,0.00,,,0.00,895.00,VWS V14.00,2013-04-22 18:43:00,
2013-04-22 12:48:00,37.3,21.8,31.40,NW,307,7.0,14.0,53,0.00,,,0.00,979.00,VWS V14.00,2013-04-22 18:48:00,
2013-04-22 12:53:00,37.3,23.1,31.40,NNW,344,4.0,11.0,56,0.00,,,0.00,998.00,VWS V14.00,2013-04-22 18:53:00,
2013-04-22 12:58:00,37.6,21.1,31.40,North,360,6.0,18.0,51,0.00,,,0.00,977.00,VWS V14.00,2013-04-22 18:58:00,
2013-04-22 13:03:00,37.5,21.0,31.40,NNW,330,5.0,18.0,51,0.00,,,0.00,302.00,VWS V14.00,2013-04-22 19:03:00,
2013-04-22 13:08:00,37.7,21.7,31.40,NNW,346,5.0,14.0,52,0.00,,,0.00,923.00,VWS V14.00,2013-04-22 19:08:00,
2013-04-22 13:13:00,38.0,21.5,31.39,North,355,4.0,15.0,51,0.00,,,0.00,1004.00,VWS V14.00,2013-04-22 19:13:00,
2013-04-22 13:18:00,37.9,21.9,31.39,NNW,344,9.0,15.0,52,0.00,,,0.00,359.00,VWS V14.00,2013-04-22 19:18:00,
2013-04-22 13:23:00,37.9,20.5,31.39,NW,306,3.0,15.0,49,0.00,,,0.00,452.00,VWS V14.00,2013-04-22 19:23:00,
2013-04-22 13:28:00,37.8,22.2,31.39,NNW,336,13.0,16.0,53,0.00,,,0.00,944.00,VWS V14.00,2013-04-22 19:28:00,
2013-04-22 13:33:00,38.0,20.5,31.39,North,350,4.0,16.0,49,0.00,,,0.00,197.00,VWS V14.00,2013-04-22 19:33:00,
2013-04-22 13:38:00,37.8,20.8,31.39,North,5,9.0,13.0,50,0.00,,,0.00,933.00,VWS V14.00,2013-04-22 19:38:00,
2013-04-22 13:43:00,38.3,21.8,31.39,NW,308,9.0,13.0,51,0.00,,,0.00,977.00,VWS V14.00,2013-04-22 19:43:00,
2013-04-22 13:48:00,38.9,22.8,31.37,WNW,296,7.0,13.0,52,0.00,,,0.00,979.00,VWS V14.00,2013-04-22 19:48:00,
2013-04-22 13:54:00,39.4,19.3,31.38,NNW,344,5.0,15.0,44,0.00,,,0.00,250.00,VWS V14.00,2013-04-22 19:54:00,
2013-04-22 13:59:00,38.7,19.2,31.38,NNW,348,5.0,15.0,45,0.00,,,0.00,301.00,VWS V14.00,2013-04-22 19:59:00,
2013-04-22 14:04:00,38.9,20.9,31.37,NW,309,11.0,15.0,48,0.00,,,0.00,1053.00,VWS V14.00,2013-04-22 20:04:00,
2013-04-22 14:09:00,38.8,19.8,31.38,NW,326,3.0,14.0,46,0.00,,,0.00,315.00,VWS V14.00,2013-04-22 20:09:00,
2013-04-22 14:14:00,38.6,19.6,31.38,WNW,290,3.0,14.0,46,0.00,,,0.00,308.00,VWS V14.00,2013-04-22 20:14:00,
2013-04-22 14:19:00,38.4,20.4,31.38,NW,317,12.0,16.0,48,0.00,,,0.00,334.00,VWS V14.00,2013-04-22 20:19:00,
2013-04-22 14:24:00,38.8,20.3,31.38,North,355,2.0,12.0,47,0.00,,,0.00,529.00,VWS V14.00,2013-04-22 20:24:00,
2013-04-22 14:29:00,39.2,20.7,31.38,NNE,28,3.0,14.0,47,0.00,,,0.00,986.00,VWS V14.00,2013-04-22 20:29:00,
2013-04-22 14:34:00,39.3,20.8,31.38,NW,317,7.0,14.0,47,0.00,,,0.00,939.00,VWS V14.00,2013-04-22 20:34:00,
2013-04-22 14:39:00,39.8,20.2,31.37,NNE,17,4.0,14.0,45,0.00,,,0.00,893.00,VWS V14.00,2013-04-22 20:39:00,
2013-04-22 14:44:00,40.5,20.3,31.37,WNW,299,4.0,14.0,44,0.00,,,0.00,967.00,VWS V14.00,2013-04-22 20:44:00,
2013-04-22 14:49:00,41.1,22.4,31.37,North,355,3.0,14.0,47,0.00,,,0.00,875.00,VWS V14.00,2013-04-22 20:49:00,
2013-04-22 14:54:00,41.7,20.9,31.35,NNW,329,8.0,8.0,43,0.00,,,0.00,858.00,VWS V14.00,2013-04-22 20:54:00,
2013-04-22 14:59:00,41.8,22.5,31.35,NNE,18,4.0,10.0,46,0.00,,,0.00,881.00,VWS V14.00,2013-04-22 20:59:00,
2013-04-22 15:04:00,41.7,18.6,31.36,NNE,19,3.0,10.0,39,0.00,,,0.00,220.00,VWS V14.00,2013-04-22 21:04:00,
2013-04-22 15:09:00,41.5,19.6,31.35,NNW,329,11.0,13.0,41,0.00,,,0.00,865.00,VWS V14.00,2013-04-22 21:09:00,
2013-04-22 15:14:00,41.5,19.6,31.36,North,355,3.0,15.0,41,0.00,,,0.00,812.00,VWS V14.00,2013-04-22 21:14:00,
2013-04-22 15:19:00,41.6,19.7,31.35,North,355,3.0,15.0,41,0.00,,,0.00,837.00,VWS V14.00,2013-04-22 21:19:00,
2013-04-22 15:24:00,42.4,22.0,31.35,NNW,348,7.0,15.0,44,0.00,,,0.00,856.00,VWS V14.00,2013-04-22 21:24:00,
2013-04-22 15:29:00,42.5,21.0,31.35,NW,304,0.0,15.0,42,0.00,,,0.00,805.00,VWS V14.00,2013-04-22 21:29:00,
2013-04-22 15:34:00,42.8,19.0,31.35,North,5,5.0,15.0,38,0.00,,,0.00,773.00,VWS V14.00,2013-04-22 21:34:00,
2013-04-22 15:39:00,42.7,17.6,31.35,NNW,344,2.0,11.0,36,0.00,,,0.00,761.00,VWS V14.00,2013-04-22 21:39:00,
2013-04-22 15:44:00,43.2,18.7,31.35,NNE,32,1.0,11.0,37,0.00,,,0.00,759.00,VWS V14.00,2013-04-22 21:44:00,
2013-04-22 15:49:00,43.5,20.2,31.35,NNW,339,5.0,11.0,39,0.00,,,0.00,745.00,VWS V14.00,2013-04-22 21:49:00,
2013-04-22 15:54:00,43.5,19.0,31.34,NW,322,4.0,10.0,37,0.00,,,0.00,724.00,VWS V14.00,2013-04-22 21:54:00,
2013-04-22 15:59:00,43.3,19.4,31.35,North,355,2.0,14.0,38,0.00,,,0.00,714.00,VWS V14.00,2013-04-22 21:59:00,
2013-04-22 16:04:00,43.1,19.2,31.34,WNW,290,6.0,14.0,38,0.00,,,0.00,710.00,VWS V14.00,2013-04-22 22:04:00,
2013-04-22 16:09:00,43.2,19.9,31.35,NNE,32,6.0,7.0,39,0.00,,,0.00,696.00,VWS V14.00,2013-04-22 22:09:00,
2013-04-22 16:14:00,43.1,18.0,31.34,North,355,7.0,7.0,36,0.00,,,0.00,682.00,VWS V14.00,2013-04-22 22:14:00,
2013-04-22 16:19:00,43.1,19.2,31.34,North,355,4.0,12.0,38,0.00,,,0.00,677.00,VWS V14.00,2013-04-22 22:19:00,
2013-04-22 16:24:00,43.5,19.0,31.34,NNE,29,11.0,11.0,37,0.00,,,0.00,666.00,VWS V14.00,2013-04-22 22:24:00,
2013-04-22 16:29:00,44.1,20.1,31.33,NE,36,0.0,11.0,38,0.00,,,0.00,649.00,VWS V14.00,2013-04-22 22:29:00,
2013-04-22 16:34:00,44.3,17.0,31.33,NW,305,4.0,11.0,33,0.00,,,0.00,636.00,VWS V14.00,2013-04-22 22:34:00,
2013-04-22 16:39:00,44.5,17.2,31.33,NW,307,6.0,7.0,33,0.00,,,0.00,626.00,VWS V14.00,2013-04-22 22:39:00,
2013-04-22 16:44:00,44.3,19.0,31.33,NNW,342,6.0,10.0,36,0.00,,,0.00,613.00,VWS V14.00,2013-04-22 22:44:00,
2013-04-22 16:49:00,44.1,17.5,31.33,WNW,292,6.0,10.0,34,0.00,,,0.00,601.00,VWS V14.00,2013-04-22 22:49:00,
2013-04-22 16:54:00,44.0,17.5,31.32,West,271,5.0,9.0,34,0.00,,,0.00,587.00,VWS V14.00,2013-04-22 22:54:00,
2013-04-22 16:59:00,44.0,19.4,31.32,NNE,24,2.0,10.0,37,0.00,,,0.00,571.00,VWS V14.00,2013-04-22 22:59:00,
2013-04-22 17:04:00,44.2,19.0,31.32,NNW,346,7.0,11.0,36,0.00,,,0.00,557.00,VWS V14.00,2013-04-22 23:04:00,
2013-04-22 17:09:00,44.4,19.1,31.34,NW,322,11.0,13.0,36,0.00,,,0.00,543.00,VWS V14.00,2013-04-22 23:09:00,
2013-04-22 17:14:00,44.0,16.0,31.34,North,355,0.0,13.0,32,0.00,,,0.00,531.00,VWS V14.00,2013-04-22 23:14:00,
2013-04-22 17:19:00,43.8,17.3,31.34,NNW,340,3.0,13.0,34,0.00,,,0.00,515.00,VWS V14.00,2013-04-22 23:19:00,
2013-04-22 17:24:00,43.8,17.3,31.34,NNW,330,2.0,7.0,34,0.00,,,0.00,503.00,VWS V14.00,2013-04-22 23:24:00,
2013-04-22 17:29:00,44.0,18.8,31.34,North,351,6.0,9.0,36,0.00,,,0.00,487.00,VWS V14.00,2013-04-22 23:29:00,
2013-04-22 17:34:00,44.2,18.3,31.34,North,360,3.0,10.0,35,0.00,,,0.00,475.00,VWS V14.00,2013-04-22 23:34:00,
2013-04-22 17:39:00,44.1,18.9,31.34,North,360,4.0,11.0,36,0.00,,,0.00,459.00,VWS V14.00,2013-04-22 23:39:00,
2013-04-22 17:44:00,44.0,17.5,31.34,North,349,1.0,11.0,34,0.00,,,0.00,443.00,VWS V14.00,2013-04-22 23:44:00,
2013-04-22 17:49:00,44.1,19.5,31.33,North,355,0.0,11.0,37,0.00,,,0.00,429.00,VWS V14.00,2013-04-22 23:49:00,
2013-04-22 17:54:00,44.4,17.1,31.33,NNE,17,0.0,7.0,33,0.00,,,0.00,415.00,VWS V14.00,2013-04-22 23:54:00,
2013-04-22 17:59:00,44.4,17.8,31.33,SSE,165,3.0,7.0,34,0.00,,,0.00,399.00,VWS V14.00,2013-04-22 23:59:00,
2013-04-22 18:04:00,44.3,17.0,31.34,North,355,1.0,12.0,33,0.00,,,0.00,383.00,VWS V14.00,2013-04-23 00:04:00,
2013-04-22 18:09:00,44.2,16.2,31.33,North,355,6.0,10.0,32,0.00,,,0.00,367.00,VWS V14.00,2013-04-23 00:09:00,
2013-04-22 18:14:00,44.0,17.5,31.33,North,360,4.0,14.0,34,0.00,,,0.00,355.00,VWS V14.00,2013-04-23 00:14:00,
2013-04-22 18:19:00,43.8,17.3,31.32,NNW,346,6.0,14.0,34,0.00,,,0.00,339.00,VWS V14.00,2013-04-23 00:19:00,
2013-04-22 18:24:00,43.7,17.2,31.33,NNW,337,10.0,12.0,34,0.00,,,0.00,323.00,VWS V14.00,2013-04-23 00:24:00,
2013-04-22 18:29:00,43.4,16.9,31.34,NNW,335,5.0,12.0,34,0.00,,,0.00,308.00,VWS V14.00,2013-04-23 00:29:00,
2013-04-22 18:34:00,43.3,18.2,31.34,North,355,11.0,12.0,36,0.00,,,0.00,292.00,VWS V14.00,2013-04-23 00:34:00,
2013-04-22 18:39:00,43.2,16.7,31.34,North,5,3.0,12.0,34,0.00,,,0.00,276.00,VWS V14.00,2013-04-23 00:39:00,
2013-04-22 18:44:00,43.1,17.3,31.34,NNW,330,8.0,12.0,35,0.00,,,0.00,260.00,VWS V14.00,2013-04-23 00:44:00,
2013-04-22 18:49:00,42.9,18.4,31.33,NNW,348,8.0,16.0,37,0.00,,,0.00,244.00,VWS V14.00,2013-04-23 00:49:00,
2013-04-22 18:54:00,42.8,18.4,31.34,North,360,9.0,13.0,37,0.00,,,0.00,230.00,VWS V14.00,2013-04-23 00:54:00,
2013-04-22 18:59:00,42.6,18.8,31.33,North,360,12.0,14.0,38,0.00,,,0.00,216.00,VWS V14.00,2013-04-23 00:59:00,
2013-04-22 19:04:00,42.2,19.0,31.33,NNW,346,9.0,14.0,39,0.00,,,0.00,200.00,VWS V14.00,2013-04-23 01:04:00,
2013-04-22 19:09:00,42.1,19.5,31.33,North,350,7.0,12.0,40,0.00,,,0.00,185.00,VWS V14.00,2013-04-23 01:09:00,
2013-04-22 19:14:00,41.9,19.9,31.33,North,349,8.0,15.0,41,0.00,,,0.00,171.00,VWS V14.00,2013-04-23 01:14:00,
2013-04-22 19:19:00,41.5,19.6,31.34,NNW,327,10.0,15.0,41,0.00,,,0.00,156.00,VWS V14.00,2013-04-23 01:19:00,
2013-04-22 19:24:00,41.1,20.3,31.34,North,350,10.0,15.0,43,0.00,,,0.00,144.00,VWS V14.00,2013-04-23 01:24:00,
2013-04-22 19:29:00,40.9,20.7,31.34,NNW,344,10.0,15.0,44,0.00,,,0.00,130.00,VWS V14.00,2013-04-23 01:29:00,
2013-04-22 19:34:00,40.6,20.9,31.34,North,350,12.0,15.0,45,0.00,,,0.00,116.00,VWS V14.00,2013-04-23 01:34:00,
2013-04-22 19:39:00,40.3,20.7,31.35,NNW,348,12.0,14.0,45,0.00,,,0.00,100.00,VWS V14.00,2013-04-23 01:39:00,
2013-04-22 19:44:00,39.9,21.3,31.35,North,355,7.0,14.0,47,0.00,,,0.00,84.00,VWS V14.00,2013-04-23 01:44:00,
2013-04-22 19:49:00,39.5,21.5,31.35,NNW,347,6.0,14.0,48,0.00,,,0.00,67.00,VWS V14.00,2013-04-23 01:49:00,
2013-04-22 19:54:00,39.2,20.7,31.35,NNW,348,7.0,12.0,47,0.00,,,0.00,58.00,VWS V14.00,2013-04-23 01:54:00,
2013-04-22 19:59:00,38.8,21.3,31.35,North,349,7.0,12.0,49,0.00,,,0.00,46.00,VWS V14.00,2013-04-23 01:59:00,
2013-04-22 20:05:00,38.5,21.5,31.35,North,5,6.0,12.0,50,0.00,,,0.00,35.00,VWS V14.00,2013-04-23 02:05:00,
2013-04-22 20:10:00,38.0,22.0,31.34,North,355,6.0,10.0,52,0.00,,,0.00,16.00,VWS V14.00,2013-04-23 02:10:00,
2013-04-22 20:15:00,37.4,21.9,31.34,North,355,4.0,10.0,53,0.00,,,0.00,12.00,VWS V14.00,2013-04-23 02:15:00,
2013-04-22 20:20:00,36.9,22.3,31.35,North,360,5.0,10.0,55,0.00,,,0.00,11.00,VWS V14.00,2013-04-23 02:20:00,
2013-04-22 20:25:00,36.4,21.8,31.35,North,360,4.0,9.0,55,0.00,,,0.00,9.00,VWS V14.00,2013-04-23 02:25:00,
2013-04-22 20:30:00,35.9,21.8,31.36,North,360,4.0,9.0,56,0.00,,,0.00,5.00,VWS V14.00,2013-04-23 02:30:00,
2013-04-22 20:35:00,35.4,21.7,31.36,North,360,3.0,9.0,57,0.00,,,0.00,0.00,VWS V14.00,2013-04-23 02:35:00,
2013-04-22 20:40:00,35.1,21.4,31.37,North,360,4.0,5.0,57,0.00,,,0.00,0.00,VWS V14.00,2013-04-23 02:40:00,
2013-04-22 20:45:00,34.7,21.0,31.37,North,360,1.0,6.0,57,0.00,,,0.00,0.00,VWS V14.00,2013-04-23 02:45:00,
2013-04-22 20:50:00,34.4,21.2,31.37,North,360,0.0,6.0,58,0.00,,,0.00,0.00,VWS V14.00,2013-04-23 02:50:00,
2013-04-22 20:55:00,34.4,21.2,31.37,North,360,0.0,1.0,58,0.00,,,0.00,0.00,VWS V14.00,2013-04-23 02:55:00,
2013-04-22 21:00:00,33.9,21.1,31.38,North,360,3.0,5.0,59,0.00,,,0.00,0.00,VWS V14.00,2013-04-23 03:00:00,
2013-04-22 21:05:00,33.4,21.4,31.39,North,360,2.0,6.0,61,0.00,,,0.00,0.00,VWS V14.00,2013-04-23 03:05:00,
2013-04-22 21:10:00,32.8,21.2,31.38,North,360,4.0,4.0,62,0.00,,,0.00,0.00,VWS V14.00,2013-04-23 03:10:00,
2013-04-22 21:15:00,32.4,21.2,31.38,North,360,2.0,4.0,63,0.00,,,0.00,0.00,VWS V14.00,2013-04-23 03:15:00,
2013-04-22 21:20:00,32.1,20.9,31.38,North,360,0.0,5.0,63,0.00,,,0.00,0.00,VWS V14.00,2013-04-23 03:20:00,
2013-04-22 21:25:00,31.9,20.4,31.39,North,360,0.0,1.0,62,0.00,,,0.00,0.00,VWS V14.00,2013-04-23 03:25:00,
2013-04-22 21:30:00,31.7,20.6,31.39,North,360,2.0,3.0,63,0.00,,,0.00,0.00,VWS V14.00,2013-04-23 03:30:00,
2013-04-22 21:35:00,31.5,20.4,31.40,North,360,2.0,3.0,63,0.00,,,0.00,0.00,VWS V14.00,2013-04-23 03:35:00,
2013-04-22 21:40:00,31.4,19.5,31.41,North,360,0.0,3.0,61,0.00,,,0.00,0.00,VWS V14.00,2013-04-23 03:40:00,
2013-04-22 21:45:00,31.4,19.9,31.41,North,360,2.0,3.0,62,0.00,,,0.00,0.00,VWS V14.00,2013-04-23 03:45:00,
2013-04-22 21:50:00,31.2,19.7,31.41,North,360,0.0,3.0,62,0.00,,,0.00,0.00,VWS V14.00,2013-04-23 03:50:00,
2013-04-22 21:55:00,31.0,19.5,31.41,North,360,2.0,3.0,62,0.00,,,0.00,0.00,VWS V14.00,2013-04-23 03:55:00,
2013-04-22 22:00:00,30.8,19.7,31.41,North,360,3.0,3.0,63,0.00,,,0.00,0.00,VWS V14.00,2013-04-23 04:00:00,
2013-04-22 22:01:00,30.8,19.7,31.41,North,360,0.0,3.0,63,0.00,,,0.00,0.00,VWS V14.00,2013-04-23 04:01:00,
2013-04-22 22:06:00,30.6,19.9,31.41,North,360,0.0,0.0,64,0.00,,,0.00,0.00,VWS V14.00,2013-04-23 04:06:00,
2013-04-22 22:11:00,30.5,20.1,31.39,North,360,0.0,1.0,65,0.00,,,0.00,0.00,VWS V14.00,2013-04-23 04:11:00,
2013-04-22 22:16:00,30.5,20.1,31.39,North,360,2.0,4.0,65,0.00,,,0.00,0.00,VWS V14.00,2013-04-23 04:16:00,
2013-04-22 22:21:00,30.3,20.0,31.40,North,360,3.0,4.0,65,0.00,,,0.00,0.00,VWS V14.00,2013-04-23 04:21:00,
2013-04-22 22:26:00,30.2,19.9,31.40,North,360,1.0,4.0,65,0.00,,,0.00,0.00,VWS V14.00,2013-04-23 04:26:00,
2013-04-22 22:31:00,30.2,19.9,31.40,North,360,0.0,4.0,65,0.00,,,0.00,0.00,VWS V14.00,2013-04-23 04:31:00,
2013-04-22 22:36:00,30.2,19.9,31.40,North,360,0.0,0.0,65,0.00,,,0.00,0.00,VWS V14.00,2013-04-23 04:36:00,
2013-04-22 22:41:00,30.2,19.9,31.40,North,360,0.0,0.0,65,0.00,,,0.00,0.00,VWS V14.00,2013-04-23 04:41:00,
2013-04-22 22:46:00,30.1,19.8,31.40,North,360,2.0,2.0,65,0.00,,,0.00,0.00,VWS V14.00,2013-04-23 04:46:00,
2013-04-22 22:51:00,29.4,19.5,31.40,North,360,0.0,0.0,66,0.00,,,0.00,0.00,VWS V14.00,2013-04-23 04:51:00,
2013-04-22 22:56:00,28.9,19.0,31.40,North,360,0.0,0.0,66,0.00,,,0.00,0.00,VWS V14.00,2013-04-23 04:56:00,
2013-04-22 23:01:00,28.6,19.0,31.40,North,360,0.0,0.0,67,0.00,,,0.00,0.00,VWS V14.00,2013-04-23 05:01:00,
2013-04-22 23:06:00,28.1,18.6,31.39,North,360,0.0,0.0,67,0.00,,,0.00,0.00,VWS V14.00,2013-04-23 05:06:00,
2013-04-22 23:11:00,27.8,18.6,31.39,North,360,0.0,0.0,68,0.00,,,0.00,0.00,VWS V14.00,2013-04-23 05:11:00,
2013-04-22 23:16:00,27.5,18.3,31.39,North,360,0.0,0.0,68,0.00,,,0.00,0.00,VWS V14.00,2013-04-23 05:16:00,
2013-04-22 23:21:00,27.4,18.6,31.40,North,360,1.0,2.0,69,0.00,,,0.00,0.00,VWS V14.00,2013-04-23 05:21:00,
2013-04-22 23:26:00,27.2,18.4,31.40,North,360,0.0,2.0,69,0.00,,,0.00,0.00,VWS V14.00,2013-04-23 05:26:00,
2013-04-22 23:31:00,27.1,18.6,31.40,North,360,0.0,2.0,70,0.00,,,0.00,0.00,VWS V14.00,2013-04-23 05:31:00,
2013-04-22 23:36:00,27.1,18.6,31.40,North,360,0.0,0.0,70,0.00,,,0.00,0.00,VWS V14.00,2013-04-23 05:36:00,
2013-04-22 23:41:00,27.0,18.5,31.40,North,360,0.0,0.0,70,0.00,,,0.00,0.00,VWS V14.00,2013-04-23 05:41:00,
2013-04-22 23:46:00,26.8,18.3,31.40,North,360,0.0,0.0,70,0.00,,,0.00,0.00,VWS V14.00,2013-04-23 05:46:00,
2013-04-22 23:51:00,26.5,17.7,31.40,North,360,0.0,0.0,69,0.00,,,0.00,0.00,VWS V14.00,2013-04-23 05:51:00,
2013-04-22 23:56:00,26.3,17.5,31.40,North,360,0.0,1.0,69,0.00,,,0.00,0.00,VWS V14.00,2013-04-23 05:56:00,